KK4OHF Weather Reports


time (UTC)temp
C
wind
direction
speed
KPH
gust
KPH
rain 1hr
cm
rain 24hr
cm
rain mn
cm
humidity
%
barometer
mb
20260509162005 17 273 3.2 12.9 0.00 0.00 0.00 87 1012.2
20260509161504 17 305 3.2 4.8 0.00 0.00 0.00 88 1012.2
20260509160505 17 256 1.6 8.0 0.00 0.00 0.00 89 1012.2
20260509160005 17 241 4.8 9.7 0.00 0.00 0.00 90 1012.2
20260509155504 17 243 3.2 4.8 0.00 0.00 0.00 91 1012.2
20260509155005 17 297 3.2 11.3 0.00 0.00 0.00 91 1012.5
20260509154505 17 226 0.0 4.8 0.00 0.00 0.00 92 1012.5
20260509154006 17 247 1.6 4.8 0.00 0.00 0.00 92 1012.5
20260509153505 17 248 1.6 4.8 0.00 0.00 0.00 92 1012.5
20260509153005 17 272 1.6 4.8 0.00 0.00 0.00 92 1012.5
20260509152505 17 259 0.0 4.8 0.00 0.00 0.00 92 1012.5
20260509152004 17 263 4.8 8.0 0.00 0.00 0.00 92 1012.5
20260509151506 17 276 3.2 4.8 0.00 0.00 0.00 93 1012.5
20260509151006 16 283 1.6 4.8 0.00 0.00 0.00 93 1012.5
20260509150504 16 272 1.6 4.8 0.00 0.00 0.00 93 1012.5
20260509150004 16 255 3.2 4.8 0.00 0.00 0.00 93 1012.5
20260509145006 16 143 1.6 4.8 0.00 0.00 0.00 93 1012.5
20260509144506 16 187 1.6 4.8 0.00 0.00 0.00 93 1012.5
20260509144006 16 231 1.6 4.8 0.00 0.00 0.00 93 1012.5
20260509143505 16 202 0.0 3.2 0.00 0.00 0.00 93 1012.5
20260509143006 16 202 0.0 3.2 0.00 0.00 0.00 93 1012.5
20260509142505 16 202 0.0 1.6 0.00 0.00 0.00 92 1012.5
20260509141505 16 141 1.6 3.2 0.00 0.00 0.00 92 1012.5
20260509141005 16 257 0.0 4.8 0.00 0.00 0.00 92 1012.5
20260509140006 16 196 1.6 3.2 0.00 0.00 0.00 92 1012.5
20260509135506 16 140 1.6 3.2 0.00 0.00 0.00 92 1012.5
20260509135006 16 146 0.0 3.2 0.00 0.00 0.00 92 1012.5
20260509134505 16 165 3.2 8.0 0.00 0.00 0.00 92 1012.5
20260509134005 16 206 0.0 3.2 0.00 0.00 0.00 92 1012.5
20260509133505 16 192 0.0 1.6 0.00 0.00 0.00 92 1012.5
20260509133005 16 164 1.6 4.8 0.00 0.00 0.00 92 1012.5
20260509132505 16 204 0.0 4.8 0.00 0.00 0.00 92 1012.5
20260509132005 16 253 0.0 4.8 0.00 0.00 0.00 92 1012.5
20260509131505 16 256 3.2 8.0 0.00 0.00 0.00 92 1012.5
20260509131006 16 275 0.0 8.0 0.00 0.00 0.00 92 1012.5
20260509130505 16 232 1.6 4.8 0.00 0.00 0.00 92 1012.5
20260509130005 16 88 0.0 3.2 0.00 0.00 0.00 92 1012.5
20260509125504 16 208 1.6 3.2 0.00 0.00 0.00 93 1012.5
20260509125005 16 194 1.6 8.0 0.00 0.00 0.00 93 1012.5
20260509124505 16 150 0.0 1.6 0.00 0.00 0.00 93 1012.5
20260509124007 15 222 0.0 3.2 0.00 0.00 0.00 93 1012.5
20260509123505 15 287 0.0 4.8 0.00 0.00 0.00 93 1012.5
20260509122505 15 196 0.0 1.6 0.00 0.00 0.00 93 1012.5
20260509122006 15 196 0.0 1.6 0.00 0.00 0.00 93 1012.5
20260509121505 15 196 0.0 1.6 0.00 0.00 0.00 93 1012.5
20260509121005 15 279 0.0 1.6 0.00 0.00 0.00 93 1012.5
20260509120505 15 278 0.0 0.0 0.00 0.00 0.00 93 1012.5
20260509115505 15 278 1.6 3.2 0.00 0.00 0.00 93 1012.5
20260509115005 15 278 0.0 4.8 0.00 0.00 0.00 93 1012.5
20260509114005 15 246 0.0 1.6 0.00 0.00 0.00 93 1012.5
20260509113505 15 246 0.0 1.6 0.00 0.00 0.00 93 1012.5
20260509113004 15 246 1.6 3.2 0.00 0.00 0.00 93 1012.5
20260509112005 15 242 0.0 1.6 0.00 0.00 0.00 93 1012.5
20260509111505 15 242 0.0 1.6 0.00 0.00 0.00 93 1012.5
20260509111005 15 242 1.6 4.8 0.00 0.00 0.00 93 1012.5
20260509110506 15 291 0.0 3.2 0.00 0.00 0.00 93 1012.5
20260509110005 15 291 0.0 3.2 0.00 0.00 0.00 93 1012.5
20260509105506 15 291 0.0 1.6 0.00 0.00 0.00 93 1012.5
20260509105005 15 291 0.0 1.6 0.00 0.00 0.00 93 1012.5
20260509103505 15 286 1.6 4.8 0.00 0.00 0.00 93 1012.5
20260509103007 15 273 0.0 3.2 0.00 0.00 0.00 93 1012.5
20260509102505 15 272 1.6 3.2 0.00 0.00 0.00 93 1012.5
20260509102005 15 130 1.6 3.2 0.00 0.00 0.00 93 1012.5
20260509101505 15 181 1.6 3.2 0.00 0.00 0.00 93 1012.5
20260509101005 15 234 1.6 4.8 0.00 0.00 0.00 93 1012.5
20260509100006 15 197 0.0 3.2 0.00 0.00 0.00 93 1012.5
20260509095506 14 263 1.6 4.8 0.00 0.00 0.00 93 1012.5
20260509095006 14 209 0.0 1.6 0.00 0.00 0.00 93 1012.5
20260509094505 14 216 0.0 3.2 0.00 0.00 0.00 93 1012.5
20260509094005 14 288 1.6 3.2 0.00 0.00 0.00 93 1012.5
20260509093506 14 245 1.6 3.2 0.00 0.00 0.00 93 1012.5
20260509093006 13 243 1.6 4.8 0.00 0.00 0.00 93 1012.5
20260509092505 13 130 0.0 1.6 0.00 0.00 0.00 93 1012.5
20260509092006 13 146 0.0 3.2 0.00 0.00 0.00 93 1012.5
20260509091505 13 223 0.0 0.0 0.00 0.00 0.00 93 1012.5
20260509090505 13 148 0.0 0.0 0.00 0.00 0.00 93 1012.5
20260509090006 13 148 0.0 0.0 0.00 0.00 0.00 93 1012.5
20260509085505 13 148 0.0 0.0 0.00 0.00 0.00 93 1012.5
20260509085005 13 148 0.0 0.0 0.00 0.00 0.00 93 1012.5
20260509084505 13 148 0.0 0.0 0.00 0.00 0.00 93 1012.5
20260509083506 12 148 0.0 1.6 0.00 0.00 0.00 93 1012.5
20260509083005 12 218 0.0 0.0 0.00 0.00 0.00 93 1012.5
20260509082505 12 218 0.0 0.0 0.00 0.00 0.00 93 1012.5
20260509081504 12 218 0.0 0.0 0.00 0.00 0.00 93 1012.5
20260509080505 12 218 0.0 0.0 0.00 0.00 0.00 93 1012.5
20260509080005 12 218 0.0 0.0 0.00 0.00 0.00 93 1012.5
20260509075505 12 218 0.0 0.0 0.00 0.00 0.00 93 1012.5
20260509075005 12 218 0.0 0.0 0.00 0.00 0.00 93 1012.5
20260509074505 12 218 0.0 0.0 0.00 0.00 0.00 93 1012.5
20260509074005 12 218 0.0 0.0 0.00 0.00 0.00 93 1012.5
20260509073505 12 218 0.0 0.0 0.00 0.00 0.00 93 1012.5
20260509073005 12 218 0.0 0.0 0.00 0.00 0.00 93 1012.5
20260509071506 12 218 0.0 0.0 0.00 0.00 0.00 93 1012.5
20260509071005 12 218 0.0 0.0 0.00 0.00 0.00 93 1012.5
20260509070505 12 218 0.0 0.0 0.00 0.00 0.00 93 1012.5
20260509070006 12 218 0.0 0.0 0.00 0.00 0.00 93 1012.5
20260509065506 12 218 0.0 0.0 0.00 0.00 0.00 93 1012.5
20260509065005 12 218 0.0 0.0 0.00 0.00 0.00 93 1012.5
20260509064506 12 218 0.0 0.0 0.00 0.00 0.00 93 1012.5
20260509064005 12 218 0.0 0.0 0.00 0.00 0.00 93 1012.5
20260509063506 12 218 0.0 0.0 0.00 0.00 0.00 93 1012.5
20260509063005 12 218 0.0 0.0 0.00 0.00 0.00 93 1012.5
20260509062006 12 218 0.0 0.0 0.00 0.00 0.00 93 1012.5
20260509061505 12 218 0.0 0.0 0.00 0.00 0.00 93 1012.5
20260509060505 12 218 0.0 0.0 0.00 0.00 0.00 93 1012.5
20260509060005 12 218 0.0 0.0 0.00 0.00 0.00 93 1012.5
20260509055506 12 218 0.0 0.0 0.00 0.00 0.00 93 1012.5
20260509055005 12 218 0.0 0.0 0.00 0.00 0.00 93 1012.5
20260509054505 12 218 0.0 0.0 0.00 0.00 0.00 93 1012.5
20260509054006 12 218 0.0 0.0 0.00 0.00 0.00 93 1012.5
20260509053506 12 218 0.0 0.0 0.00 0.00 0.00 93 1012.5
20260509053005 12 218 0.0 0.0 0.00 0.00 0.00 93 1012.5
20260509052005 12 218 0.0 0.0 0.00 0.00 0.00 93 1013.1
20260509051505 12 218 0.0 0.0 0.00 0.00 0.00 92 1013.1
20260509051005 12 218 0.0 0.0 0.00 0.00 0.00 92 1013.1
20260509050505 12 218 0.0 0.0 0.00 0.00 0.00 92 1013.1
20260509045505 12 218 0.0 0.0 0.00 0.00 0.00 92 1013.1
20260509045005 12 218 0.0 0.0 0.00 0.00 0.00 92 1013.1
20260509044505 12 218 0.0 0.0 0.00 0.00 0.00 92 1013.1
20260509044006 12 218 0.0 0.0 0.00 0.00 0.00 92 1013.1
20260509043006 13 218 0.0 0.0 0.00 0.00 0.00 92 1013.1
20260509042506 13 218 0.0 0.0 0.00 0.00 0.00 92 1013.1
20260509042005 13 218 0.0 0.0 0.00 0.00 0.00 92 1013.1
20260509041005 13 218 0.0 0.0 0.00 0.00 0.00 91 1013.1
20260509040505 13 218 0.0 0.0 0.00 0.00 0.00 91 1013.1
20260509040005 13 218 0.0 0.0 0.00 0.00 0.00 91 1013.1
20260509035505 13 218 0.0 0.0 0.00 0.00 0.00 91 1013.1
20260509035006 13 218 0.0 0.0 0.00 0.00 0.00 91 1013.1
20260509034504 13 218 0.0 0.0 0.00 0.00 0.00 91 1013.1
20260509034006 13 218 0.0 0.0 0.00 0.00 0.00 91 1013.1
20260509033006 13 218 0.0 0.0 0.00 0.00 0.00 90 1013.1
20260509032505 13 218 0.0 0.0 0.00 0.00 0.00 90 1013.1
20260509032006 13 218 0.0 0.0 0.00 0.00 0.00 90 1013.1
20260509031506 13 218 0.0 0.0 0.00 0.00 0.00 90 1013.1
20260509031005 13 218 0.0 0.0 0.00 0.00 0.00 90 1013.1
20260509030505 13 218 0.0 0.0 0.00 0.00 0.00 90 1013.1
20260509030005 13 218 0.0 0.0 0.00 0.00 0.00 89 1012.9
20260509025505 13 218 0.0 0.0 0.00 0.00 0.00 89 1012.9
20260509025005 13 218 0.0 0.0 0.00 0.00 0.00 89 1012.9
20260509024506 13 218 0.0 0.0 0.00 0.00 0.00 89 1012.9
20260509024005 14 218 0.0 0.0 0.00 0.00 0.00 89 1012.9
20260509023005 14 218 0.0 0.0 0.00 0.00 0.00 88 1012.9
20260509022006 14 218 0.0 0.0 0.00 0.00 0.00 88 1012.9
20260509021506 14 218 0.0 0.0 0.00 0.00 0.00 88 1012.9
20260509021006 15 218 0.0 0.0 0.00 0.00 0.00 88 1012.9
20260509020505 15 218 0.0 0.0 0.00 0.00 0.00 87 1012.9
20260509020005 15 218 0.0 0.0 0.00 0.00 0.00 87 1012.9
20260509015504 15 218 0.0 0.0 0.00 0.00 0.00 86 1012.9
20260509014506 15 218 0.0 0.0 0.00 0.00 0.00 83 1012.9
20260509014005 16 218 0.0 0.0 0.00 0.00 0.00 82 1012.9
20260509013006 16 218 0.0 0.0 0.00 0.00 0.00 82 1012.9
20260509012506 16 218 0.0 0.0 0.00 0.00 0.00 83 1012.9
20260509012005 16 218 0.0 0.0 0.00 0.00 0.00 83 1012.9
20260509011005 16 218 0.0 0.0 0.00 0.00 0.00 80 1012.9
20260509010505 16 218 0.0 0.0 0.00 0.00 0.00 80 1012.9
20260509010005 16 218 0.0 0.0 0.00 0.00 0.00 79 1012.9
20260509005505 16 218 0.0 0.0 0.00 0.00 0.00 79 1012.9
20260509005006 16 218 0.0 0.0 0.00 0.00 0.00 79 1012.9
20260509004006 16 218 0.0 0.0 0.00 0.00 0.00 78 1012.9
20260509003505 16 218 0.0 0.0 0.00 0.00 0.00 78 1012.9
20260509002505 16 218 0.0 0.0 0.00 0.00 0.00 78 1012.9
20260509002005 16 218 0.0 0.0 0.00 0.00 0.00 79 1012.9
20260509001505 17 218 0.0 0.0 0.00 0.00 0.00 79 1012.9
20260509001005 17 218 0.0 0.0 0.00 0.00 0.00 79 1012.9
20260509000505 17 218 0.0 0.0 0.00 0.00 0.00 79 1012.9
20260508235505 17 218 0.0 0.0 0.00 0.00 0.00 79 1012.9
20260508235005 17 218 0.0 0.0 0.00 0.00 0.00 79 1012.9
20260508234505 17 218 0.0 0.0 0.00 0.00 0.00 77 1012.9
20260508234005 17 218 0.0 0.0 0.00 0.00 0.00 76 1012.9
20260508233505 17 218 0.0 0.0 0.00 0.00 0.00 75 1012.9
20260508232005 18 138 0.0 0.0 0.00 0.00 0.00 74 1012.9
20260508231504 18 138 0.0 0.0 0.00 0.00 0.00 72 1012.9
20260508231005 18 138 0.0 0.0 0.00 0.00 0.00 72 1012.9
20260508230505 18 138 0.0 0.0 0.00 0.00 0.00 70 1012.9
20260508230005 18 138 0.0 0.0 0.00 0.00 0.00 68 1012.9
20260508225505 18 138 0.0 0.0 0.00 0.00 0.00 68 1012.9
20260508224505 18 138 0.0 0.0 0.00 0.00 0.00 67 1012.9
20260508224005 18 138 0.0 0.0 0.00 0.00 0.00 66 1013.2
20260508222505 19 128 0.0 0.0 0.00 0.00 0.00 62 1013.2
20260508222005 19 219 0.0 0.0 0.00 0.00 0.00 63 1013.2
20260508221505 19 128 0.0 0.0 0.00 0.00 0.00 63 1013.2
20260508221006 19 290 0.0 0.0 0.00 0.00 0.00 62 1013.2
20260508220506 20 244 0.0 0.0 0.00 0.00 0.00 61 1013.2
20260508220005 20 143 0.0 0.0 0.00 0.00 0.00 60 1013.2
20260508215504 20 145 0.0 0.0 0.00 0.00 0.00 61 1013.2
20260508214506 20 340 0.0 0.0 0.00 0.00 0.00 60 1013.2
20260508214005 20 327 0.0 0.0 0.00 0.00 0.00 60 1013.2
20260508213505 20 50 0.0 0.0 0.00 0.00 0.00 62 1013.2
20260508213005 20 0 0.0 0.0 0.00 0.00 0.00 60 1013.2
20260508212506 20 338 0.0 0.0 0.00 0.00 0.00 58 1013.2
20260508212005 20 96 0.0 1.6 0.00 0.00 0.00 58 1013.2
20260508211504 20 136 0.0 0.0 0.00 0.00 0.00 59 1013.2
20260508211007 20 139 0.0 0.0 0.00 0.00 0.00 58 1013.2
20260508210505 20 96 0.0 0.0 0.00 0.00 0.00 59 1013.2
20260508210006 20 155 0.0 0.0 0.00 0.00 0.00 59 1013.1
20260508205505 20 74 0.0 0.0 0.00 0.00 0.00 58 1013.1
20260508205006 21 156 0.0 0.0 0.00 0.00 0.00 57 1013.1
20260508204505 21 186 0.0 0.0 0.00 0.00 0.00 54 1013.1
20260508203505 21 117 0.0 0.0 0.00 0.00 0.00 55 1013.1
20260508202505 21 190 0.0 0.0 0.00 0.00 0.00 53 1013.1
20260508202006 21 150 0.0 0.0 0.00 0.00 0.00 54 1013.1
20260508201505 21 133 0.0 0.0 0.00 0.00 0.00 52 1013.1
20260508201005 21 136 0.0 3.2 0.00 0.00 0.00 51 1013.1
20260508200005 21 60 0.0 0.0 0.00 0.00 0.00 54 1013.1
20260508195506 21 114 0.0 0.0 0.00 0.00 0.00 52 1013.1
20260508195005 21 114 0.0 0.0 0.00 0.00 0.00 51 1013.1
20260508194506 21 114 0.0 0.0 0.00 0.00 0.00 53 1013.1
20260508193505 21 105 0.0 0.0 0.00 0.00 0.00 51 1013.6
20260508193006 21 118 0.0 0.0 0.00 0.00 0.00 50 1013.9
20260508192505 21 101 0.0 0.0 0.00 0.00 0.00 50 1013.9
20260508191505 21 103 0.0 0.0 0.00 0.00 0.00 50 1013.9
20260508191005 22 108 0.0 0.0 0.00 0.00 0.00 51 1013.9
20260508185505 22 127 0.0 3.2 0.00 0.00 0.00 50 1015.2
20260508184505 22 28 0.0 4.8 0.00 0.00 0.00 51 1015.2
20260508184007 21 262 1.6 4.8 0.00 0.00 0.00 48 1015.2
20260508183505 22 82 0.0 0.0 0.00 0.00 0.00 51 1015.2
20260508183006 22 201 0.0 0.0 0.00 0.00 0.00 46 1015.2
20260508182505 22 250 0.0 0.0 0.00 0.00 0.00 46 1015.2
20260508182007 22 196 0.0 0.0 0.00 0.00 0.00 50 1015.2
20260508181506 22 77 0.0 0.0 0.00 0.00 0.00 50 1015.2
20260508180504 21 12 0.0 0.0 0.00 0.00 0.00 47 1015.2
20260508180005 22 101 0.0 0.0 0.00 0.00 0.00 47 1015.2
20260508175505 21 313 0.0 0.0 0.00 0.00 0.00 50 1015.2
20260508175005 21 146 0.0 0.0 0.00 0.00 0.00 49 1015.2
20260508174505 21 24 0.0 0.0 0.00 0.00 0.00 48 1015.2
20260508174005 21 352 0.0 0.0 0.00 0.00 0.00 48 1015.2
20260508173005 21 22 0.0 0.0 0.00 0.00 0.00 49 1015.2
20260508172505 21 346 0.0 0.0 0.00 0.00 0.00 46 1015.2
20260508172005 21 277 0.0 1.6 0.00 0.00 0.00 46 1015.2
20260508171005 21 19 0.0 0.0 0.00 0.00 0.00 48 1017.3
20260508170506 20 15 0.0 0.0 0.00 0.00 0.00 48 1017.3
20260508170006 21 38 0.0 0.0 0.00 0.00 0.00 51 1017.3
20260508165505 21 107 0.0 1.6 0.00 0.00 0.00 47 1017.3
20260508165005 21 91 0.0 3.2 0.00 0.00 0.00 53 1017.3
20260508164506 21 19 0.0 0.0 0.00 0.00 0.00 51 1017.3
20260508164005 20 224 0.0 0.0 0.00 0.00 0.00 51 1017.3
20260508163505 20 134 0.0 0.0 0.00 0.00 0.00 54 1017.3